Regional Weather Roundup
Issued by NWS Upton, NY

Current Version | Previous Version | Graphics & Text | Print | Product List | Glossary Off
Versions: 1 2 3 4 5 6 7 8 9 10 11 12 13 14 15 16 17 18 19 20 21 22 23 24 25 26 27 28 29 30 31 32 33 34 35 36 37 38 39 40 41 42 43 44 45 46 47 48 49 50

000
ASUS41 KOKX 250105
RWROKX

REGIONAL WEATHER ROUNDUP
NATIONAL WEATHER SERVICE NEW YORK NY
800 PM EST SAT JAN 24 2015

NOTE: "FAIR" INDICATES FEW OR NO CLOUDS BELOW 12,000 FEET WITH NO
SIGNIFICANT WEATHER AND/OR OBSTRUCTIONS TO VISIBILITY.

NYZ071-072-176-178-NJZ106-104-250200-
NEW YORK CITY METRO AREA


CITY           SKY/WX    TMP DP  RH WIND       PRES   REMARKS
CENTRAL PARK   CLEAR     38  25  59 VRB7G18   29.41R WCI  33
LAGUARDIA APRT PTCLDY    38  27  64 NW15G23   29.39R WCI  29
KENNEDY INTL   MOCLDY    39  29  67 NW15G22   29.41R WCI  31
NEWARK/LIBERTY PTCLDY    37  28  70 W10       29.41R WCI  30
BRNX BOT. GARD   N/A    N/A N/A N/A NW13      29.39R
TETERBORO      CLEAR     37  26  64 W10       29.39R WCI  30
$$

NYZ177-179-078>081-250200-
LONG ISLAND NEW YORK

CITY           SKY/WX    TMP DP  RH WIND       PRES   REMARKS
FARMINGDALE    MOCLDY    37  33  85 W8        29.37R WCI  31
ISLIP          CLOUDY    35  32  88 W7        29.35R WCI  29
SHIRLEY        CLOUDY    35  33  92 W9        29.35R WCI  28
WESTHAMPTON    CLOUDY    35  32  88 W8        29.34R WCI  29
MONTAUK POINT    N/A     36  33  89 W12       29.30R WCI  28
$$

NYZ052-065-067-250200-
HUDSON VALLEY

CITY           SKY/WX    TMP DP  RH WIND       PRES   REMARKS
WHITE PLAINS   PTCLDY    33  30  88 NW10      29.35R WCI  25
NEWBURGH       PTCLDY    34  30  86 NW17      29.37R WCI  23
MONTGOMERY     PTCLDY    35  23  61 W7        29.38R WCI  29
POUGHKEEPSIE   FOG       27  24  89 CALM      29.38R VSB 1/4
ALBANY         CLOUDY    31  22  69 W17G29    29.38R WCI  19
$$

NJZ001-105-106-008-010-013-015-019>022-104-250200-
NEW JERSEY

CITY           SKY/WX    TMP DP  RH WIND       PRES   REMARKS
NEWARK/LIBERTY PTCLDY    37  28  70 W10       29.41R WCI  30
TETERBORO      CLEAR     37  26  64 W10       29.39R WCI  30
CALDWELL       CLEAR     36  25  64 NW5       29.41R WCI  32
MORRISTOWN     NOT AVBL
SOMERVILLE     CLEAR     35  28  75 CALM      29.42R
SUSSEX         MOCLDY    35  21  56 NW6       29.42R WCI  30
ANDOVER          N/A     31  26  82 CALM      29.42R
TRENTON        CLEAR     35  28  75 W6        29.44R WCI  30
MILLVILLE      CLEAR     34  32  92 W10       29.50R WCI  26
ATLANTIC CITY  CLEAR     35  31  85 W10       29.48R FOG     WCI  27
WRIGHTSTOWN    CLEAR     35  31  87 W7        29.43R WCI  29
TOMS RIVER     PTCLDY    34  30  86 W3        29.43S
BELMAR         NOT AVBL
$$

PAZ047>061-062-071-250200-
EASTERN PENNSYLVANIA

CITY           SKY/WX    TMP DP  RH WIND       PRES   REMARKS
PHILADELPHIA   PTCLDY    34  30  85 W12       29.49R WCI  25
ALLENTOWN      CLEAR     36  25  64 W9        29.44R WCI  29
SCRANTON       CLOUDY    33  23  66 NW8       29.46R WCI  26
$$

CTZ002-004>006-009-010-012-RIZ004-006-007-MAZ004-011-015-250200-
SOUTHERN NEW ENGLAND
 IN CT

CITY           SKY/WX    TMP DP  RH WIND       PRES   REMARKS
BRADLEY INTL   CLOUDY    34  27  75 NW8       29.29R WCI  27
HARTFORD       MOCLDY    34  28  79 SW6       29.31R WCI  29
DANBURY        PTCLDY    33  27  78 W5        29.36R WCI  29
WTRBRY/OXFORD  PTCLDY    34  21  60 N9G17     29.31R WCI  26
BRIDGEPORT     CLOUDY    35  32  88 W8        29.34R WCI  29
MERIDEN        MOCLDY    35  27  72 NW6       29.31R WCI  30
NEW HAVEN      MOCLDY    37  27  67 NW7       29.32R WCI  32
CHESTER        MOCLDY    34  32  93 NW10G17   29.29S WCI  26
GROTON         CLOUDY    33  33 100 W9        29.28S WCI  25
WILLIMANTIC    CLOUDY    34  31  88 W5        29.28R WCI  30

 IN RI

CITY           SKY/WX    TMP DP  RH WIND       PRES   REMARKS
PROVIDENCE     LGT SNOW  33  31  92 NW10      29.25R FOG     WCI  25
BLOCK ISLAND   CLOUDY    36  30  80 NW13G21   29.26R WCI  27
WESTERLY       LGT SNOW  34  33  96 W6        29.28R FOG     WCI  29

 IN MA

CITY           SKY/WX    TMP DP  RH WIND       PRES   REMARKS
BOSTON         LGT SNOW  32  30  92 NW13G22   29.21S VSB 1   WCI  22
WORCESTER      CLOUDY    30  27  88 NW17      29.21R WCI  18
WESTFIELD      CLOUDY    33  26  75 VRB6      29.28R WCI  28
PROVINCETOWN   CLOUDY    36  32  87 NW24G36   29.13R WCI  24
NANTUCKET      LGT SNOW  35  33  92 NW25G37   29.13R FOG     WCI  23
$$

ANZ330-335-338-340-345-350-353-355-250200-
COASTAL MARINE OBSERVATIONS


STATION/POSITION TIME  SKY/WX   TEMP    WIND        PRES    VSBY  WAVE
                                AIR SEA DIR/SP/G                  HT/PER
                 (UTC)          (F)     (DEG/KT/KT) (MB)    (MI)  (FT/S)
NY HARB ENTRANCE 0100            40 42  280/ 21/ 27  994.5          6/11
4S FIRE IS       0100               38                N/A           7/11
20S FIRE ISLAND  0000               41               994.0          9/11
23SW MTP         0100                                 N/A          10/11
HUDSON CANYON    NOT AVBL
EXECUTION ROCKS  0100            37 35  280/ 10/ 14   N/A
WESTERN LI SOUND 0100            35     280/  4/  4   N/A           0
CENTRAL LI SOUND 0000            36 37  270/ 16/ 17   N/A           1/ 2
EASTERN LI SOUND NOT AVBL
ROBBINS REEF     0100            38     290/ 12/ 17  994.4
$$


>>>>>>>>>>>>>>>>>>>>>>>>>>>> KEY <<<<<<<<<<<<<<<<<<<<<<<<<<<
>                                                          <
>     SKY/WX - SKY CONDITION/PRESENT WEATHER               <
>     TMP    - TEMPERATURE IN FAHRENHEIT                   <
>     DP     - DEWPOINT IN FAHRENHEIT                      <
>     RH     - RELATIVE HUMIDITY IN PERCENT                <
>     WIND   - DIRECTION AND SPEED IN MPH                  <
>     PRES   - MEAN SEA LEVEL PRESSURE IN INCHES OF HG     <
>     WCI    - WIND CHILL INDEX                            <
>     VSB    - VISIBILITY IN MILES                         <
>     HX     - HEAT INDEX                                  <
>     TC     - TEMPERATURE IN CELSIUS                      <
>     VRB    - VARIABLE WIND DIRECTION                     <
>                                                          <
>>>>>>>>>>>>>>>>>>>>>>>>>>>> KEY <<<<<<<<<<<<<<<<<<<<<<<<<<<




USA.gov is the U.S. government's official web portal to all federal, state and local government web resources and services.